Regional Weather Roundup
Issued by NWS Northern Indiana

Home | Current Version | Previous Version | Text Only | Print | Product List | Glossary On
Versions: 1 2 3 4 5 6 7 8 9 10 11 12 13 14 15 16 17 18 19 20 21 22 23 24 25 26 27 28 29 30 31 32 33 34 35 36 37 38 39 40 41 42 43 44 45 46 47 48 49 50
713
ASUS43 KIWX 261710
RWRIWX

KIWX WEATHER ROUNDUP
NATIONAL WEATHER SERVICE NORTHERN INDIANA
100 PM EDT THU MAY 26 2016

NOTE: "FAIR" INDICATES FEW OR NO CLOUDS BELOW 12,000 FEET WITH NO
SIGNIFICANT WEATHER AND/OR OBSTRUCTIONS TO VISIBILITY.

* THESE STATIONS ARE NOT UNDER NWS QUALITY CONTROL. THEY ALSO MAY NOT
  REPORT WEATHER SUCH AS PRECIPITATION OR FOG.

INZ001>027-261800-
NORTHERN INDIANA

CITY           SKY/WX    TMP DP  RH WIND       PRES   REMARKS
GARY*          CLOUDY    75  72  88 S9        29.94F
VALPARAISO     CLOUDY    72  68  87 S7        29.96F
MICHIGAN CITY* CLOUDY    75  68  78 S14G21    29.96F
LAPORTE*       CLOUDY    73  73 100 S9G16     29.99S
KNOX*          CLOUDY    68  63  83 S8G16     29.98F
SOUTH BEND     CLOUDY    75  66  73 S13       29.98S
ELKHART*       CLOUDY    77  70  78 SW9       29.99
GOSHEN         PTSUNNY   77  63  61 SW14      29.99R
MONTICELLO*    DRIZZLE   67  64  87 S6        29.99F
LOGANSPORT*    LGT RAIN  68  63  83 CALM      30.01F
ROCHESTER*     LGT RAIN  70  64  83 W6        30.03R
WARSAW*        CLOUDY    77  64  65 SW9G17    30.01S
ANGOLA*        PTSUNNY   81  75  83 SW8       29.99S
FORT WAYNE     CLOUDY    80  64  58 SW13      30.00F
HUNTINGTON*    PTSUNNY  N/A N/A N/A SW12      30.01S
PERU/GRISSOM   CLOUDY    70  70 100 N2        30.00F
MARION*        CLOUDY    74  65  71 SW16      30.05R HAZE

$$
INZ028>050-261800-
CENTRAL INDIANA

CITY           SKY/WX    TMP DP  RH WIND       PRES   REMARKS
LAFAYETTE      LGT RAIN  67  66  97 SE7       29.98F
KOKOMO*        CLOUDY    72  64  78 W12       30.03S
MUNCIE*        CLOUDY    77  65  66 SW9       30.03S
INDIANAPOLIS   TSTM      69  66  90 W15       30.06R

$$
MIZ043>046-050>051-056>058-064>065-071>073-077>080-261800-
SOUTHWEST LOWER MICHIGAN

CITY           SKY/WX    TMP DP  RH WIND       PRES   REMARKS
BATTLE CREEK   MOSUNNY   77  67  71 S12       29.97F
BENTON HARBOR  CLOUDY    79  68  69 S9        29.93F
COLDWATER*     PTSUNNY   80  64  59 SW12G18   29.98S
HILLSDALE*     PTSUNNY   79  58  47 SW12      30.00S
HOLLAND        PTSUNNY   77  67  71 SW16      29.93F
GRAND RAPIDS   MOSUNNY   81  69  67 S10       29.92F
KALAMAZOO      CLOUDY    79  67  66 S12       29.96F
STURGIS*       CLOUDY    78  66  65 SW10G21   29.97F
THREE RIVERS*  PTSUNNY   79  65  61 SW9       29.97S

$$
OHZ001>008-015>018-024>025-261800-
NORTHWEST OHIO

CITY           SKY/WX    TMP DP  RH WIND       PRES   REMARKS
WAUSEON*         N/A     81  81 100 SW12G18   29.99S FOG
DEFIANCE       PTSUNNY   83  63  50 SW15G21   30.00R
FINDLAY        PTSUNNY   82  62  50 SW13G21   30.00F
TOLEDO EXPRESS MOSUNNY   81  63  54 S10       29.98F
TOLEDO METCALF PTSUNNY   82  63  52 S16       29.99F
LIMA           MOSUNNY   80  64  58 SW12      30.02S

$$
AND FOR LAKE MICHIGAN COASTAL AND OPEN LAKE BUOY OBSERVATIONS

STATION/POSITION TEMP    WIND        PRES    VSBY  WAVE
                 AIR SEA DIR/SP/G                  HT/PER
                 (F)     (DEG/KT/KT) (MB)    (MI)  (FT/S)
CALUMET HARBOR    73     170/ 14/ 18 1013.0R
MICHIGAN CITY     74     170/ 15/ 16   N/A
BURNS HARBOR      75     170/ 10/ 19 1013.5F
SAINT JOSEPH      77     190/ 10/ 17 1014.9F
SOUTH LAKE BUOY   54 49  170/ 12/ 14 1012.5F         1/ 3
4 MI NW BRIDGMAN  67 60  190/  8/ 10   N/A           1
MICHIGAN CITY     68 58  190/ 12/ 16   N/A           1

$$
&&




USA.gov is the U.S. government's official web portal to all federal, state and local government web resources and services.